+ View the NASA Portal
+ Center for Near-Earth Object Studies
IMPORTANT:
The SSD Announcement email list is now available. Major changes are coming in the near future, including possible hostname and/or URL changes. To be notified of such changes, subscribe to this email list.
Please visit
this page
for more details.
Don't show this message again
JPL Small-Body Database Browser
Search:
[
help
]
452662 (2005 VE9)
Classification:
Main-belt Asteroid
SPK-ID:
2452662
[
Ephemeris
|
Orbit Diagram
|
Orbital Elements
|
Mission Design
|
Physical Parameters
|
Discovery Circumstances
]
[ show orbit diagram ]
Orbital Elements at Epoch 2458600.5 (2019-Apr-27.0) TDB
Reference:
JPL 10
(heliocentric ecliptic J2000)
Element
Value
Uncertainty (1-sigma)
Units
e
.1371222149357394
2.2323e-07
a
3.007329166775297
6.0582e-08
au
q
2.594957530386217
6.991e-07
au
i
11.46150095075288
1.4022e-05
deg
node
63.31555031190776
6.3402e-05
deg
peri
307.93144544
8.0061e-05
deg
M
245.5186929402332
4.8873e-05
deg
t
p
2459206.261900509983
(2020-Dec-22.76190051)
0.00027125
TDB
period
1904.889888003677
5.22
5.756e-05
1.576e-07
d
yr
n
.1889873017160481
5.7106e-09
deg/d
Q
3.419700803164378
6.8889e-08
au
Orbit Determination Parameters
# obs. used (total)
87
data-arc span
4553 days (12.47 yr)
first obs. used
2005-10-24
last obs. used
2018-04-12
planetary ephem.
DE431
SB-pert. ephem.
SB431-N16
condition code
0
norm. resid. RMS
.70833
source
ORB
producer
Otto Matic
solution date
2019-Jul-14 06:01:31
Additional Information
Earth MOID
= 1.61429 au
Jupiter MOID
= 2.0881 au
T_jup
= 3.206
[ show covariance matrix ]
[
Ephemeris
|
Orbit Diagram
|
Orbital Elements
|
Mission Design
|
Physical Parameters
|
Discovery Circumstances
]
Physical Parameter Table
Parameter
Symbol
Value
Units
Sigma
Reference
Notes
absolute magnitude
H
16.3
n/a
MPO446795
452662 (2005 VE9)
Discovered 2005-Oct-24 by Spacewatch at Kitt Peak
Reference:
Last Updated:
2016-01-04
[
Ephemeris
|
Orbit Diagram
|
Orbital Elements
|
Mission Design
|
Physical Parameters
|
Discovery Circumstances
]
2019-Dec-13 02:56 UT
(server date/time)
Site Manager:
Ryan S. Park
Webmaster
:
Alan B. Chamberlin